Theta_e
296 296 295 295 295 295 295 295 295 294 294 294 294 293 293 292 292 292 293 292 292 292 291 292 291 290 290 291 291 291 291 290 290 292 293 294 294 293 293 293 293 292 292
295 295 294 294 295 295 295 295 294 294 294 294 293 293 293 293 293 293 293 293 292 292 291 291 291 289 289 290 291 291 291 291 290 291 293 294 292 292 292 292 292 292 292
294 294 295 295 295 295 295 294 294 293 293 293 293 293 293 293 293 293 293 293 292 291 291 291 291 289 289 290 291 291 291 291 291 291 293 291 290 290 291 291 292 291 291
294 294 294 294 294 293 294 293 293 293 292 292 292 293 292 292 292 293 293 293 292 291 291 291 290 291 292 290 287 287 288 289 290 290 290 289 289 289 290 291 291 291 291
295 295 295 295 294 294 293 292 292 292 292 291 292 292 292 292 292 292 292 292 292 292 292 292 292 292 292 289 287 286 286 286 286 286 287 288 288 288 289 289 290 291 291
294 294 293 293 293 293 293 293 292 291 291 291 291 291 291 291 291 291 292 292 292 291 292 292 292 292 290 288 287 286 286 286 287 286 286 287 287 287 287 288 288 289 290
293 293 292 292 292 292 292 291 291 291 291 291 290 290 290 290 290 289 290 290 291 291 290 291 292 291 288 287 286 285 286 286 286 286 286 287 287 287 286 286 287 287 288
291 291 291 290 290 290 290 290 290 290 290 291 290 290 290 290 290 290 289 288 289 290 290 289 289 289 289 287 286 285 285 285 285 285 286 286 286 285 285 285 285 286 287
289 288 288 288 288 288 288 288 288 288 288 288 288 289 289 289 289 289 289 289 289 288 289 289 288 288 288 286 286 286 286 286 286 285 285 285 284 284 284 284 285 285 285
287 287 287 287 287 287 287 287 287 288 287 287 287 287 287 287 287 287 286 285 286 286 287 288 289 288 287 286 286 286 287 288 287 287 286 285 285 284 284 283 284 284 284
287 287 287 287 287 287 287 286 286 286 286 287 287 287 287 287 287 286 286 284 284 283 283 284 285 284 284 284 285 285 285 286 287 287 288 287 287 287 286 284 283 283 283
285 286 286 286 286 286 286 286 285 286 286 285 286 285 285 285 285 286 286 285 283 284 284 283 283 283 283 283 284 284 285 285 284 284 284 285 286 287 287 287 285 283 283
285 285 285 285 285 285 285 285 285 285 285 285 285 285 284 282 283 283 284 282 281 282 283 283 282 282 282 283 283 284 284 284 284 284 284 284 284 284 285 284 285 285 284
284 284 284 284 284 283 283 283 282 282 282 282 282 283 282 282 282 281 281 281 281 282 282 282 282 282 282 282 282 282 282 283 283 283 283 283 283 283 284 284 284 284 284
284 283 283 283 283 283 282 282 282 281 281 280 280 280 280 281 280 280 280 281 280 279 279 279 280 280 281 283 282 282 282 282 283 283 283 283 283 283 283 283 284 284 284
283 283 283 283 283 283 282 282 282 282 282 282 281 281 280 279 279 279 279 278 278 278 278 278 278 278 278 278 279 279 281 282 282 282 282 282 283 283 282 282 283 283 283
283 283 283 283 283 283 283 282 282 282 282 282 281 281 281 280 280 279 278 278 277 277 278 278 278 278 278 277 277 277 278 278 280 281 281 281 281 281 282 282 281 281 281
283 283 283 282 282 282 282 282 282 282 282 282 281 282 281 281 281 280 280 279 280 279 279 278 278 278 278 277 277 277 277 277 277 277 277 277 279 280 280 280 280 279 279
283 283 283 283 283 283 282 282 282 282 282 282 282 281 281 280 281 281 280 280 281 281 280 279 279 278 278 277 277 277 277 277 276 276 276 276 276 276 276 277 278 278 278
283 282 282 282 282 282 282 281 281 281 281 281 281 281 281 280 280 280 280 279 279 280 280 280 280 279 278 277 277 276 276 276 276 276 276 275 275 275 276 275 275 275 276
282 282 281 281 281 281 281 280 280 280 280 280 280 280 279 279 279 279 279 279 279 278 279 279 279 278 278 278 277 277 276 276 276 276 276 275 275 275 275 274 274 274 274
282 281 281 280 280 280 280 279 279 279 279 279 279 279 278 278 277 277 278 278 278 278 277 277 278 278 278 278 277 277 276 276 276 275 275 275 274 274 274 274 274 273 273
280 280 280 279 279 278 278 278 278 277 277 277 277 277 276 276 276 276 275 275 275 275 275 275 275 276 276 276 276 276 276 276 276 274 274 274 274 274 273 273 273 273 272
278 278 278 277 277 277 276 276 276 276 275 275 275 275 275 274 274 274 273 273 272 272 272 273 273 274 274 275 275 275 275 275 275 274 273 273 273 273 273 272 272 272 272
277 276 276 275 275 275 275 275 274 274 274 274 274 273 273 273 273 272 271 271 270 270 270 271 271 272 272 273 273 273 274 274 273 272 272 272 272 273 272 272 272 272 271
275 275 274 274 274 274 274 274 273 273 272 272 272 271 271 271 271 271 271 270 270 269 269 270 270 271 271 271 272 272 272 272 272 272 272 272 272 272 272 272 271 271 270
Wind_Speed
24 22 21 20 20 18 18 18 17 17 16 16 16 17 19 19 20 20 19 18 18 18 18 18 18 17 18 16 17 16 17 18 21 20 16 13 9 10 10 9 7 5 5
22 20 19 18 18 17 17 17 17 16 16 15 16 15 16 15 16 16 16 16 16 17 17 17 17 17 18 17 16 15 15 14 16 17 12 12 10 10 10 10 9 6 6
19 18 17 17 18 17 16 17 17 16 15 15 15 13 14 14 14 14 16 16 17 17 17 17 17 17 17 16 14 14 13 13 14 15 12 8 8 10 10 11 11 9 9
17 16 15 15 16 16 17 17 16 16 15 15 13 13 13 14 14 14 14 14 15 16 17 17 17 18 17 16 14 12 11 11 12 13 13 11 11 9 10 11 11 11 10
14 13 14 14 14 14 15 16 16 17 15 15 15 14 14 14 13 13 13 13 14 15 16 17 17 17 16 17 17 14 14 14 14 15 16 15 13 11 11 12 12 12 11
12 12 13 13 13 14 15 15 16 17 17 17 16 16 16 15 13 13 13 13 14 16 17 17 17 17 17 18 18 17 17 18 19 19 19 20 17 14 14 15 16 15 16
12 13 13 13 13 13 13 13 15 15 16 17 18 18 18 17 16 15 15 16 16 17 17 18 18 18 18 19 19 20 21 22 21 20 23 23 21 17 17 19 20 19 20
10 11 12 12 12 13 13 14 14 15 16 16 17 17 19 19 19 18 17 18 20 20 19 18 19 19 19 21 22 24 24 24 24 24 26 25 24 21 21 21 23 25 24
8 8 8 8 8 10 11 12 12 13 14 14 15 16 18 18 17 18 19 21 23 23 23 22 22 23 22 22 25 26 26 27 25 26 27 27 26 24 24 24 26 26 26
6 5 5 5 5 6 7 8 9 10 11 12 13 14 15 16 14 15 16 19 22 23 24 24 24 25 24 24 24 27 30 29 27 28 28 29 28 27 25 27 27 28 27
4 4 4 3 4 5 5 6 7 8 9 10 11 11 12 13 12 14 15 18 21 21 23 23 22 21 20 20 21 25 29 28 29 30 32 32 32 32 30 28 28 29 30
4 3 2 2 3 4 4 4 5 5 6 8 9 7 9 9 10 10 11 13 15 17 18 18 17 18 19 20 22 23 24 24 27 29 30 30 29 30 29 28 28 29 30
2 1 1 1 2 3 3 3 5 4 5 5 5 5 6 8 8 8 10 10 10 12 13 15 14 14 13 15 17 18 19 21 24 26 29 29 27 25 22 22 21 23 24
2 2 1 0 1 1 2 2 4 4 4 4 5 5 6 7 6 8 9 11 14 16 16 18 18 18 17 16 16 17 19 21 25 27 27 26 23 20 19 18 18 18 20
5 4 4 3 3 2 2 2 3 4 4 5 5 6 7 7 6 7 7 7 9 10 11 10 11 12 14 16 18 17 19 17 16 17 21 22 20 19 19 18 19 20 23
4 4 3 3 3 3 3 5 5 6 7 7 7 7 7 7 8 8 9 9 10 11 14 12 12 12 11 11 12 12 12 14 16 16 18 20 21 21 20 19 19 17 21
2 0 1 2 3 4 5 6 5 9 10 10 10 10 10 10 11 11 12 14 15 15 17 15 15 15 14 14 14 13 12 12 16 18 19 20 20 21 21 21 21 21 22
4 5 6 7 8 9 11 12 14 14 14 13 13 15 14 14 15 16 17 18 21 19 20 19 19 19 19 19 17 17 17 16 15 16 17 18 19 21 21 22 21 20 20
9 10 11 12 13 15 16 17 19 20 21 22 21 18 18 18 20 20 21 24 26 26 24 24 24 23 23 22 22 21 21 20 19 18 18 17 18 18 19 19 20 22 23
14 16 17 18 20 21 22 23 25 25 27 27 28 26 25 25 26 26 26 28 30 31 30 29 27 27 27 27 26 26 25 24 23 22 21 20 19 19 19 19 19 19 20
19 20 22 24 25 26 28 29 29 30 31 31 31 29 29 33 35 34 34 34 34 34 33 33 32 31 30 31 31 31 30 28 26 25 25 23 21 21 19 19 19 19 18
26 27 28 29 29 30 31 31 31 32 33 35 36 35 34 36 38 40 41 41 40 39 37 36 37 36 34 33 32 32 32 32 30 28 27 25 24 23 21 21 20 19 19
28 29 30 30 31 32 34 35 36 37 37 37 36 36 34 34 35 36 38 38 38 39 38 36 37 37 36 34 32 32 34 33 30 28 28 27 27 26 24 24 22 21 20
32 33 34 34 34 34 35 34 33 32 31 30 28 28 28 29 32 34 36 36 35 34 32 32 33 33 33 32 30 30 31 31 29 28 29 29 29 27 26 25 24 23 21
28 28 27 27 27 27 26 26 26 26 26 27 27 28 28 28 30 31 31 30 29 29 27 25 25 26 27 27 27 27 28 29 28 27 28 29 29 28 27 26 24 24 22
22 23 24 24 25 25 26 26 27 28 29 30 30 31 30 30 29 28 26 25 24 23 22 21 19 19 21 22 22 23 24 25 26 27 28 28 28 29 28 26 25 25 23
Wind_Direction
204 208 215 221 226 231 236 242 245 249 252 257 261 261 260 257 256 256 258 257 255 253 248 247 248 249 250 249 250 245 241 237 245 240 245 220 257 247 250 253 246 250 269
209 212 219 227 232 232 233 238 243 246 248 253 258 260 262 259 256 255 255 255 251 249 248 246 245 248 250 247 244 244 244 243 246 259 255 241 230 232 237 246 256 250 266
209 216 222 229 237 238 234 237 240 243 246 249 253 256 259 259 261 261 258 254 253 250 249 247 247 246 249 245 241 241 243 242 244 252 257 237 224 243 245 245 246 249 261
206 215 225 232 237 241 241 240 241 243 246 250 253 254 255 257 261 261 259 255 252 251 252 250 248 245 242 235 236 240 243 246 247 252 254 258 257 250 252 247 239 250 253
210 221 231 236 239 239 242 242 241 242 244 247 252 254 255 257 258 258 258 254 251 251 251 251 249 245 236 231 240 245 251 253 254 258 263 267 266 266 270 268 262 260 263
217 225 230 237 241 242 244 244 244 244 244 247 251 255 257 258 256 256 259 255 254 253 252 250 247 240 231 234 245 249 251 254 257 261 267 269 273 277 278 281 281 283 286
232 235 235 238 243 245 246 246 247 247 249 251 252 253 255 256 252 251 254 257 256 256 256 255 250 240 238 243 247 252 253 256 260 263 266 270 277 281 279 278 281 280 279
229 236 235 236 241 247 248 248 248 249 251 251 253 253 255 255 252 251 251 252 255 256 257 256 251 246 247 250 253 253 254 256 258 263 268 274 275 277 275 275 275 276 278
220 223 234 239 244 248 252 253 254 255 256 256 256 256 256 256 251 250 248 248 252 255 257 255 253 252 251 255 259 258 260 259 260 262 264 266 270 272 274 271 268 273 277
208 215 228 234 242 251 256 261 260 258 256 256 257 258 257 259 259 253 246 249 253 257 260 261 258 257 256 256 258 263 264 261 264 262 262 263 266 267 266 266 271 270 273
222 236 245 253 255 255 258 259 260 261 263 263 262 261 261 259 254 252 249 247 253 258 262 263 263 264 262 258 258 265 271 276 273 272 269 266 264 262 261 260 262 265 268
219 233 245 252 259 263 261 268 267 265 266 263 260 247 249 253 249 245 243 247 253 258 265 268 266 262 258 255 252 252 256 264 270 275 277 275 272 268 268 267 263 263 265
200 203 230 241 241 245 259 274 280 283 273 268 267 261 250 261 266 236 231 234 255 263 266 271 272 269 263 257 253 253 254 255 262 269 274 278 282 285 282 275 268 258 261
119 96 100 276 326 324 325 318 305 312 313 310 297 279 273 265 264 254 252 238 246 252 253 258 265 265 261 258 255 257 258 261 258 258 264 273 278 275 275 277 271 264 264
106 105 99 86 68 44 22 0 336 331 328 308 303 299 293 282 280 278 281 277 275 277 276 275 271 273 273 262 250 257 267 264 264 261 258 266 273 274 272 275 272 266 258
123 113 96 75 61 39 19 352 351 341 335 330 322 316 299 299 290 285 285 286 282 282 283 284 282 281 281 275 268 268 261 256 260 262 260 260 262 266 264 264 261 261 258
166 247 326 333 329 327 322 320 318 318 313 312 309 302 301 302 296 293 289 286 282 282 284 284 283 280 280 280 280 279 272 260 257 259 263 265 267 268 268 266 264 263 264
279 291 296 301 305 306 308 308 305 301 294 288 289 291 292 291 289 288 285 283 280 281 283 282 281 279 278 277 275 275 275 273 266 262 261 262 264 266 267 267 265 262 262
286 287 290 293 295 296 296 295 293 291 291 290 286 278 283 282 279 280 279 277 280 280 278 277 278 276 274 272 271 270 270 269 269 268 266 265 264 264 264 265 266 265 263
286 288 290 293 292 290 290 289 288 289 288 288 287 289 288 284 278 277 275 275 276 279 281 279 277 274 271 270 269 268 266 265 266 267 267 266 265 264 264 264 266 268 268
285 286 289 290 291 291 289 290 290 289 289 289 289 290 290 289 287 283 279 278 278 278 278 277 276 274 270 268 266 265 265 264 262 263 264 265 265 264 265 263 261 262 265
291 291 292 292 292 291 290 289 288 289 289 290 290 288 287 285 285 286 285 282 281 278 276 274 273 272 270 267 265 263 262 261 260 259 260 262 261 262 261 261 261 259 260
292 291 291 290 289 287 286 286 287 287 288 288 289 290 291 290 289 288 287 285 282 279 275 271 268 267 266 265 262 261 260 260 259 257 255 255 256 257 257 257 257 254 253
290 290 289 287 286 286 286 287 287 286 286 287 289 292 295 299 301 300 296 292 288 283 278 273 269 267 266 264 260 257 257 258 256 253 252 251 252 253 253 253 253 252 248
288 286 285 287 288 289 289 289 289 289 289 290 292 293 296 299 303 306 304 298 292 288 284 278 271 267 265 263 260 255 254 254 253 251 250 250 251 252 252 250 248 247 242
292 291 291 291 291 291 290 290 290 290 291 292 292 293 293 294 296 301 305 303 299 295 292 286 278 271 267 262 258 257 254 252 251 250 249 250 252 253 252 250 246 242 238